Flag for U.S.A. Weather past 2 weeks in Salem, Oregon, U.S.A.

Now
50 °F

Light rain. More clouds than sun.


Feels Like: 47 °F
Forecast: 47 / 57 °F
Wind: 7 mph from Southeast

Location: McNary Field

Current Time: Dec 19, 2014 at 5:01:37 PM

Latest Report: Dec 19, 2014 at 3:56 PM


Visibility: 10 mi

Pressure: 29.98 "Hg

Humidity: 83%

Dew point: 45 °F

Location of SalemLocation

Historic Weather in Salem — Graph

°F

Salem temperature yesterday

Maximum temperature yesterday: 55 °F (at 7:56 PM)
Minimum temperature yesterday: 41 °F (at 3:56 AM)
Average temperature yesterday: 49 °F

Past Weeks' High & Low Weather Summary

 TemperatureHumidityPressure
High62 °F (Dec 9, 7:56 AM)100% (Dec 7, 5:01 AM)30.23 "Hg (Dec 7, 5:01 AM)
Low35 °F (Dec 13, 7:03 AM)50% (Dec 11, 1:56 PM)29.10 "Hg (Dec 11, 12:56 PM)
Average47 °F86%29.88 "Hg
* Reported Dec 4 3:56 PM — Dec 19 3:56 PM, Salem, Weather by CustomWeather, © 2014

Note: Actual official high and low records may vary slightly from our data, if they occured in-between our weather recording intervals... More about our weather records

Advertising

Salem weather history for previous 24 hours

 ConditionsComfort  
Time TempWeatherWind HumidityBarometerVisibility
3:56 PM
Dec 19
50 °FLight rain. More clouds than sun.7 mph83%29.98 "Hg10 mi
2:56 PM51 °FLight rain. Mostly cloudy.10 mph77%29.99 "Hg10 mi
1:56 PM52 °FMostly cloudy.9 mph75%30.00 "Hg10 mi
12:56 PM51 °FPartly sunny.10 mph77%30.01 "Hg10 mi
12:03 PM50 °FBroken clouds.10 mph77%30.02 "Hg10 mi
11:56 AM51 °FPartly sunny.15 mph77%30.03 "Hg10 mi
10:56 AM49 °FScattered clouds.14 mph84%30.02 "Hg10 mi
9:56 AM47 °FBroken clouds.10 mph86%30.01 "Hg10 mi
8:56 AM46 °FLight rain. Mostly cloudy.15 mph86%29.98 "Hg10 mi
7:56 AM45 °FLight rain. More clouds than sun.12 mph90%29.97 "Hg9 mi
6:56 AM45 °FMostly cloudy.6 mph93%29.96 "Hg10 mi
5:56 AM46 °FLight rain. Overcast.12 mph86%29.93 "Hg10 mi
4:56 AM47 °FLight rain. Mostly cloudy.8 mph86%29.93 "Hg10 mi
3:56 AM47 °FOvercast.8 mph90%29.91 "Hg10 mi
2:56 AM47 °FLight rain. Mostly cloudy.8 mph86%29.91 "Hg10 mi
1:56 AM46 °FPassing clouds.7 mph89%29.89 "Hg10 mi
12:56 AM48 °FPassing clouds.9 mph89%29.88 "Hg10 mi
11:56 PM
Dec 18
48 °FLight rain. Mostly cloudy.7 mph86%29.88 "Hg10 mi
10:56 PM50 °FRain. Fog.10 mph86%29.87 "Hg6 mi
9:56 PM52 °FLight rain. Overcast.15 mph80%29.80 "Hg10 mi
8:56 PM52 °FLight rain. Overcast.13 mph80%29.78 "Hg10 mi
7:56 PM55 °FLight rain. Overcast.10 mph64%29.79 "Hg10 mi
6:56 PM54 °FOvercast.13 mph69%29.78 "Hg10 mi
5:56 PM51 °FOvercast.5 mph86%29.80 "Hg10 mi
Weather by CustomWeather, © 2014

See weather overviewHow to use our weather pages